Location: Saratoga Springs
(43.0831°N, 73.7850°W)
Time: 15:36:39
(UTC-04:00)

Vanguard 2 Rocket - Pass Details

Date: 13 April 2024
Orbit: 556 x 3304 km, 32.9° (Epoch: 24 May)

Event Time Altitude Azimuth Distance (km) Brightness Sun altitude
Rises 06:20:07 0° 278° (W) 6,666 10.7 0.0°
Reaches altitude 10° 06:26:05 10° 267° (W) 5,210 10.1 1.0°
Maximum altitude 06:36:20 25° 221° (SW) 3,210 9.3 2.9°
Drops below altitude 10° 06:43:22 10° 171° (S) 3,442 9.9 4.1°
Sets 06:46:23 0° 157° (SSE) 4,056 10.4 4.7°
